QPF
0.06 0.07 0.06 0.06 0.06 0.05 0.04 0.04 0.03 0.02 0.02 0.01 0.01 0.01 0.02 0.01 0.01 0.01 0.01 0.01 0.00 0.01 0.01 0.02 0.02 0.01 0.02 0.02 0.02 0.02 0.02 0.02 0.02 0.02 0.02 0.02 0.02 0.03 0.02 0.02 0.02 0.01 0.02
0.08 0.08 0.07 0.06 0.05 0.04 0.03 0.03 0.02 0.03 0.03 0.02 0.02 0.02 0.02 0.02 0.02 0.01 0.02 0.03 0.01 0.01 0.01 0.02 0.02 0.02 0.02 0.03 0.03 0.04 0.02 0.03 0.03 0.02 0.03 0.03 0.03 0.03 0.03 0.03 0.03 0.02 0.02
0.08 0.08 0.08 0.07 0.06 0.04 0.03 0.03 0.03 0.03 0.04 0.05 0.04 0.03 0.03 0.02 0.01 0.01 0.03 0.06 0.07 0.06 0.05 0.04 0.04 0.04 0.03 0.04 0.07 0.08 0.06 0.05 0.05 0.05 0.04 0.03 0.03 0.03 0.04 0.04 0.04 0.04 0.03
0.06 0.07 0.08 0.07 0.06 0.05 0.04 0.05 0.05 0.05 0.07 0.07 0.07 0.06 0.04 0.03 0.03 0.03 0.05 0.08 0.11 0.12 0.10 0.06 0.06 0.05 0.06 0.07 0.09 0.10 0.09 0.07 0.05 0.05 0.05 0.03 0.03 0.05 0.05 0.04 0.04 0.04 0.04
0.03 0.06 0.09 0.08 0.07 0.07 0.05 0.04 0.07 0.09 0.10 0.08 0.05 0.06 0.05 0.05 0.06 0.06 0.07 0.09 0.11 0.13 0.12 0.11 0.10 0.07 0.08 0.09 0.08 0.08 0.08 0.07 0.05 0.05 0.05 0.04 0.06 0.07 0.06 0.05 0.05 0.05 0.04
0.03 0.05 0.07 0.07 0.07 0.09 0.08 0.08 0.09 0.12 0.11 0.09 0.05 0.06 0.06 0.06 0.07 0.09 0.10 0.08 0.08 0.10 0.12 0.13 0.16 0.10 0.07 0.07 0.07 0.06 0.06 0.07 0.08 0.08 0.08 0.10 0.11 0.10 0.08 0.07 0.06 0.05 0.04
0.03 0.08 0.07 0.08 0.06 0.08 0.10 0.10 0.14 0.16 0.13 0.09 0.11 0.12 0.09 0.06 0.08 0.09 0.09 0.08 0.09 0.10 0.09 0.09 0.10 0.11 0.10 0.07 0.06 0.07 0.08 0.08 0.10 0.10 0.10 0.11 0.10 0.08 0.06 0.06 0.05 0.05 0.04
0.05 0.07 0.10 0.10 0.09 0.11 0.11 0.11 0.14 0.13 0.12 0.10 0.13 0.15 0.15 0.15 0.14 0.09 0.08 0.09 0.10 0.09 0.08 0.07 0.09 0.11 0.11 0.11 0.07 0.07 0.07 0.09 0.10 0.09 0.08 0.08 0.07 0.06 0.06 0.06 0.06 0.05 0.04
0.04 0.07 0.10 0.09 0.09 0.09 0.11 0.11 0.10 0.11 0.12 0.13 0.13 0.15 0.17 0.18 0.18 0.14 0.12 0.12 0.11 0.11 0.09 0.08 0.09 0.11 0.12 0.11 0.08 0.06 0.05 0.07 0.09 0.10 0.09 0.08 0.07 0.05 0.05 0.06 0.06 0.05 0.04
0.04 0.06 0.08 0.08 0.08 0.09 0.11 0.08 0.08 0.10 0.14 0.14 0.15 0.14 0.13 0.16 0.16 0.16 0.16 0.14 0.14 0.14 0.13 0.11 0.12 0.13 0.13 0.11 0.08 0.06 0.06 0.06 0.07 0.08 0.08 0.09 0.08 0.06 0.05 0.05 0.05 0.05 0.05
0.05 0.05 0.08 0.09 0.09 0.11 0.12 0.08 0.08 0.08 0.10 0.10 0.12 0.12 0.13 0.14 0.14 0.14 0.16 0.16 0.14 0.12 0.11 0.11 0.11 0.12 0.12 0.09 0.10 0.08 0.06 0.05 0.05 0.07 0.08 0.09 0.09 0.07 0.06 0.06 0.06 0.04 0.04
0.08 0.07 0.08 0.09 0.10 0.12 0.13 0.11 0.09 0.08 0.09 0.09 0.09 0.09 0.12 0.13 0.14 0.13 0.15 0.17 0.15 0.13 0.11 0.10 0.10 0.10 0.10 0.09 0.08 0.08 0.07 0.06 0.06 0.06 0.08 0.08 0.07 0.06 0.07 0.06 0.05 0.05 0.05
0.09 0.08 0.07 0.08 0.08 0.09 0.09 0.10 0.09 0.10 0.10 0.09 0.09 0.09 0.10 0.11 0.12 0.14 0.17 0.17 0.14 0.12 0.10 0.08 0.08 0.07 0.06 0.07 0.08 0.07 0.06 0.07 0.06 0.06 0.06 0.05 0.05 0.04 0.04 0.05 0.06 0.07 0.07
0.06 0.05 0.05 0.06 0.06 0.06 0.06 0.08 0.08 0.08 0.09 0.08 0.08 0.09 0.08 0.09 0.10 0.13 0.18 0.17 0.13 0.10 0.08 0.07 0.07 0.05 0.04 0.06 0.08 0.09 0.09 0.06 0.04 0.03 0.03 0.03 0.02 0.03 0.03 0.04 0.05 0.05 0.05
0.04 0.03 0.04 0.05 0.04 0.04 0.05 0.06 0.06 0.06 0.06 0.05 0.05 0.07 0.08 0.08 0.10 0.14 0.19 0.19 0.15 0.12 0.10 0.09 0.07 0.07 0.07 0.08 0.10 0.10 0.08 0.04 0.02 0.02 0.02 0.02 0.02 0.03 0.03 0.03 0.04 0.04 0.05
0.05 0.04 0.04 0.04 0.04 0.04 0.05 0.06 0.05 0.04 0.04 0.04 0.05 0.07 0.08 0.09 0.10 0.12 0.14 0.13 0.13 0.12 0.12 0.10 0.09 0.09 0.08 0.06 0.07 0.06 0.04 0.03 0.02 0.01 0.01 0.01 0.01 0.02 0.02 0.03 0.04 0.03 0.03
0.04 0.04 0.04 0.04 0.03 0.03 0.02 0.02 0.02 0.03 0.03 0.04 0.05 0.06 0.07 0.08 0.08 0.09 0.10 0.09 0.10 0.10 0.10 0.08 0.08 0.07 0.05 0.05 0.06 0.04 0.03 0.03 0.03 0.02 0.01 0.01 0.01 0.02 0.03 0.04 0.05 0.04 0.03
0.05 0.04 0.04 0.03 0.02 0.02 0.02 0.02 0.01 0.02 0.02 0.02 0.02 0.03 0.04 0.05 0.06 0.07 0.08 0.08 0.08 0.09 0.09 0.08 0.06 0.06 0.06 0.06 0.05 0.04 0.04 0.04 0.04 0.03 0.01 0.01 0.01 0.01 0.01 0.03 0.05 0.06 0.05
0.03 0.04 0.03 0.02 0.02 0.01 0.01 0.01 0.01 0.02 0.02 0.01 0.01 0.02 0.02 0.04 0.05 0.06 0.06 0.06 0.06 0.07 0.08 0.07 0.05 0.06 0.05 0.06 0.05 0.05 0.04 0.05 0.04 0.03 0.01 0.01 0.01 0.01 0.01 0.01 0.02 0.03 0.04
0.02 0.03 0.02 0.03 0.03 0.02 0.02 0.01 0.01 0.01 0.01 0.01 0.01 0.01 0.02 0.02 0.03 0.03 0.04 0.05 0.06 0.06 0.06 0.05 0.05 0.04 0.04 0.05 0.04 0.04 0.04 0.05 0.03 0.02 0.01 0.00 0.01 0.01 0.01 0.01 0.02 0.02 0.03
0.02 0.02 0.02 0.02 0.03 0.03 0.03 0.02 0.01 0.01 0.01 0.01 0.01 0.01 0.02 0.02 0.01 0.02 0.03 0.04 0.05 0.05 0.05 0.04 0.04 0.03 0.02 0.02 0.03 0.04 0.05 0.05 0.04 0.02 0.01 0.01 0.00 0.01 0.01 0.01 0.02 0.02 0.03
0.02 0.02 0.02 0.03 0.05 0.05 0.05 0.04 0.02 0.02 0.02 0.02 0.03 0.03 0.02 0.01 0.01 0.02 0.02 0.02 0.03 0.03 0.03 0.04 0.03 0.03 0.03 0.03 0.03 0.04 0.04 0.04 0.03 0.02 0.01 0.01 0.01 0.01 0.01 0.02 0.02 0.02 0.02
0.03 0.02 0.03 0.04 0.06 0.07 0.07 0.06 0.04 0.04 0.03 0.02 0.03 0.03 0.01 0.01 0.01 0.01 0.01 0.01 0.02 0.02 0.02 0.03 0.03 0.03 0.04 0.03 0.03 0.03 0.03 0.03 0.03 0.02 0.02 0.01 0.01 0.01 0.01 0.03 0.03 0.03 0.03
0.03 0.03 0.03 0.03 0.03 0.03 0.04 0.04 0.03 0.03 0.03 0.02 0.01 0.01 0.02 0.01 0.01 0.00 0.00 0.01 0.02 0.02 0.01 0.01 0.02 0.02 0.03 0.04 0.04 0.03 0.03 0.03 0.03 0.02 0.02 0.01 0.01 0.01 0.01 0.01 0.02 0.01 0.01
0.03 0.03 0.02 0.02 0.01 0.00 0.00 0.00 0.00 0.01 0.01 0.01 0.01 0.01 0.01 0.00 0.00 0.00 0.00 0.01 0.01 0.01 0.01 0.01 0.01 0.02 0.02 0.03 0.03 0.03 0.03 0.04 0.04 0.03 0.03 0.03 0.03 0.02 0.01 0.01 0.01 0.00 0.00
0.02 0.02 0.01 0.02 0.01 0.00 0.00 0.00 0.00 0.00 0.01 0.01 0.01 0.00 0.00 0.00 0.00 0.00 0.00 0.01 0.01 0.01 0.00 0.00 0.01 0.01 0.01 0.02 0.02 0.02 0.02 0.04 0.05 0.05 0.04 0.03 0.02 0.02 0.02 0.01 0.01 0.00 0.00
MSLP
1014.86 1014.96 1015.03 1015.09 1015.16 1015.25 1015.35 1015.45 1015.51 1015.53 1015.49 1015.40 1015.31 1015.26 1015.31 1015.47 1015.79 1016.24 1016.79 1017.38 1017.95 1018.46 1018.86 1019.16 1019.35 1019.47 1019.56 1019.64 1019.74 1019.87 1020.01 1020.17 1020.34 1020.50 1020.67 1020.83 1021.01 1021.19 1021.37 1021.54 1021.69 1021.80 1021.88
1014.66 1014.75 1014.81 1014.88 1014.96 1015.06 1015.17 1015.29 1015.38 1015.44 1015.45 1015.41 1015.36 1015.34 1015.37 1015.51 1015.76 1016.14 1016.60 1017.11 1017.64 1018.13 1018.55 1018.90 1019.17 1019.38 1019.54 1019.67 1019.79 1019.91 1020.04 1020.16 1020.30 1020.44 1020.59 1020.75 1020.93 1021.12 1021.30 1021.47 1021.62 1021.73 1021.81
1014.47 1014.53 1014.59 1014.66 1014.76 1014.89 1015.04 1015.19 1015.33 1015.43 1015.48 1015.49 1015.47 1015.45 1015.47 1015.55 1015.72 1015.99 1016.34 1016.76 1017.21 1017.66 1018.08 1018.47 1018.81 1019.09 1019.33 1019.53 1019.69 1019.83 1019.94 1020.05 1020.15 1020.26 1020.39 1020.55 1020.72 1020.91 1021.10 1021.28 1021.43 1021.55 1021.64
1014.30 1014.33 1014.39 1014.47 1014.60 1014.77 1014.95 1015.15 1015.34 1015.49 1015.58 1015.63 1015.63 1015.62 1015.61 1015.63 1015.72 1015.87 1016.10 1016.40 1016.75 1017.14 1017.54 1017.94 1018.32 1018.67 1018.97 1019.23 1019.44 1019.60 1019.72 1019.81 1019.90 1019.98 1020.09 1020.23 1020.39 1020.58 1020.77 1020.95 1021.12 1021.26 1021.37
1014.14 1014.15 1014.21 1014.31 1014.47 1014.68 1014.91 1015.15 1015.38 1015.57 1015.71 1015.79 1015.82 1015.82 1015.79 1015.77 1015.78 1015.84 1015.96 1016.15 1016.40 1016.70 1017.05 1017.43 1017.82 1018.19 1018.54 1018.84 1019.08 1019.26 1019.39 1019.47 1019.54 1019.61 1019.70 1019.82 1019.98 1020.16 1020.35 1020.54 1020.72 1020.87 1021.01
1014.01 1014.00 1014.06 1014.19 1014.38 1014.61 1014.88 1015.15 1015.41 1015.63 1015.81 1015.92 1015.99 1016.00 1015.99 1015.96 1015.93 1015.93 1015.97 1016.06 1016.22 1016.44 1016.72 1017.05 1017.41 1017.78 1018.13 1018.44 1018.69 1018.88 1019.01 1019.09 1019.15 1019.21 1019.29 1019.40 1019.54 1019.71 1019.90 1020.09 1020.27 1020.43 1020.58
1013.91 1013.89 1013.96 1014.10 1014.30 1014.55 1014.83 1015.11 1015.38 1015.62 1015.82 1015.97 1016.07 1016.13 1016.15 1016.15 1016.14 1016.12 1016.13 1016.17 1016.26 1016.41 1016.62 1016.88 1017.19 1017.51 1017.83 1018.12 1018.35 1018.53 1018.65 1018.73 1018.78 1018.84 1018.91 1019.01 1019.15 1019.31 1019.49 1019.67 1019.84 1019.99 1020.12
1013.86 1013.84 1013.90 1014.05 1014.25 1014.49 1014.75 1015.02 1015.27 1015.50 1015.70 1015.87 1016.02 1016.13 1016.22 1016.29 1016.33 1016.36 1016.38 1016.42 1016.48 1016.58 1016.73 1016.93 1017.17 1017.44 1017.70 1017.94 1018.14 1018.29 1018.40 1018.46 1018.51 1018.56 1018.63 1018.73 1018.86 1019.02 1019.18 1019.34 1019.48 1019.59 1019.69
1013.86 1013.85 1013.92 1014.05 1014.23 1014.44 1014.66 1014.88 1015.08 1015.27 1015.45 1015.63 1015.80 1015.97 1016.14 1016.29 1016.42 1016.54 1016.63 1016.70 1016.78 1016.88 1017.00 1017.15 1017.34 1017.54 1017.74 1017.92 1018.08 1018.20 1018.28 1018.33 1018.38 1018.43 1018.50 1018.60 1018.73 1018.87 1019.01 1019.14 1019.24 1019.30 1019.34
1013.95 1013.94 1014.00 1014.11 1014.25 1014.41 1014.56 1014.70 1014.84 1014.96 1015.10 1015.25 1015.43 1015.64 1015.88 1016.11 1016.35 1016.56 1016.74 1016.90 1017.04 1017.17 1017.30 1017.44 1017.59 1017.75 1017.90 1018.05 1018.16 1018.25 1018.31 1018.35 1018.40 1018.45 1018.53 1018.63 1018.75 1018.88 1019.00 1019.09 1019.14 1019.15 1019.11
1014.11 1014.10 1014.15 1014.23 1014.32 1014.42 1014.50 1014.55 1014.60 1014.64 1014.70 1014.81 1014.97 1015.19 1015.45 1015.75 1016.07 1016.38 1016.66 1016.91 1017.13 1017.32 1017.50 1017.67 1017.83 1017.99 1018.13 1018.25 1018.35 1018.42 1018.47 1018.51 1018.55 1018.60 1018.68 1018.79 1018.91 1019.03 1019.13 1019.18 1019.19 1019.13 1019.03
1014.31 1014.31 1014.34 1014.39 1014.44 1014.48 1014.48 1014.46 1014.42 1014.37 1014.35 1014.39 1014.49 1014.68 1014.94 1015.26 1015.61 1015.98 1016.34 1016.68 1016.99 1017.27 1017.53 1017.76 1017.98 1018.17 1018.34 1018.48 1018.59 1018.66 1018.72 1018.76 1018.80 1018.86 1018.94 1019.04 1019.16 1019.27 1019.35 1019.38 1019.35 1019.25 1019.08
1014.52 1014.52 1014.54 1014.57 1014.59 1014.58 1014.54 1014.46 1014.34 1014.22 1014.12 1014.07 1014.10 1014.22 1014.42 1014.71 1015.06 1015.44 1015.85 1016.25 1016.63 1017.01 1017.36 1017.69 1017.99 1018.26 1018.50 1018.69 1018.84 1018.95 1019.02 1019.07 1019.11 1019.17 1019.25 1019.35 1019.46 1019.56 1019.63 1019.65 1019.59 1019.46 1019.26
1014.69 1014.69 1014.70 1014.73 1014.74 1014.72 1014.65 1014.54 1014.39 1014.22 1014.06 1013.93 1013.88 1013.90 1014.02 1014.23 1014.52 1014.87 1015.27 1015.70 1016.14 1016.59 1017.04 1017.48 1017.89 1018.27 1018.60 1018.87 1019.09 1019.24 1019.34 1019.41 1019.46 1019.52 1019.59 1019.68 1019.78 1019.87 1019.93 1019.94 1019.88 1019.74 1019.53
1014.78 1014.78 1014.80 1014.82 1014.85 1014.84 1014.80 1014.70 1014.55 1014.36 1014.17 1013.99 1013.86 1013.79 1013.81 1013.92 1014.11 1014.39 1014.75 1015.17 1015.63 1016.14 1016.67 1017.20 1017.73 1018.22 1018.66 1019.04 1019.33 1019.54 1019.68 1019.77 1019.83 1019.88 1019.94 1020.01 1020.10 1020.18 1020.24 1020.25 1020.20 1020.07 1019.87
1014.76 1014.77 1014.79 1014.84 1014.89 1014.93 1014.92 1014.87 1014.77 1014.61 1014.42 1014.22 1014.04 1013.90 1013.82 1013.83 1013.92 1014.11 1014.39 1014.77 1015.23 1015.76 1016.34 1016.96 1017.58 1018.18 1018.73 1019.19 1019.56 1019.84 1020.03 1020.14 1020.21 1020.25 1020.30 1020.35 1020.42 1020.49 1020.55 1020.57 1020.53 1020.43 1020.25
1014.64 1014.66 1014.70 1014.77 1014.86 1014.94 1015.00 1015.02 1014.98 1014.88 1014.73 1014.55 1014.36 1014.18 1014.04 1013.96 1013.97 1014.06 1014.27 1014.59 1015.02 1015.54 1016.15 1016.82 1017.50 1018.18 1018.81 1019.35 1019.80 1020.13 1020.36 1020.50 1020.58 1020.63 1020.66 1020.71 1020.76 1020.82 1020.88 1020.91 1020.89 1020.81 1020.67
1014.45 1014.47 1014.53 1014.63 1014.75 1014.88 1014.99 1015.08 1015.12 1015.09 1015.01 1014.88 1014.72 1014.54 1014.38 1014.26 1014.20 1014.24 1014.38 1014.64 1015.02 1015.52 1016.11 1016.79 1017.51 1018.22 1018.90 1019.50 1019.99 1020.38 1020.65 1020.83 1020.93 1020.98 1021.02 1021.06 1021.12 1021.18 1021.24 1021.28 1021.28 1021.23 1021.12
1014.21 1014.26 1014.33 1014.44 1014.59 1014.75 1014.91 1015.05 1015.15 1015.19 1015.18 1015.12 1015.01 1014.88 1014.74 1014.62 1014.54 1014.54 1014.64 1014.85 1015.18 1015.64 1016.20 1016.85 1017.56 1018.27 1018.96 1019.58 1020.11 1020.54 1020.85 1021.06 1021.20 1021.29 1021.35 1021.41 1021.47 1021.55 1021.62 1021.67 1021.70 1021.67 1021.60
1013.95 1014.03 1014.13 1014.25 1014.40 1014.57 1014.75 1014.92 1015.06 1015.16 1015.21 1015.21 1015.17 1015.10 1015.02 1014.94 1014.89 1014.89 1014.97 1015.15 1015.44 1015.84 1016.35 1016.94 1017.60 1018.28 1018.94 1019.56 1020.10 1020.55 1020.90 1021.16 1021.35 1021.48 1021.59 1021.70 1021.80 1021.90 1022.00 1022.09 1022.14 1022.14 1022.10
1013.69 1013.81 1013.94 1014.07 1014.22 1014.38 1014.55 1014.71 1014.86 1014.99 1015.08 1015.14 1015.17 1015.18 1015.17 1015.15 1015.15 1015.19 1015.28 1015.44 1015.69 1016.03 1016.47 1016.99 1017.57 1018.18 1018.80 1019.39 1019.92 1020.38 1020.77 1021.08 1021.33 1021.53 1021.71 1021.88 1022.04 1022.20 1022.35 1022.47 1022.57 1022.61 1022.61
1013.40 1013.58 1013.74 1013.89 1014.04 1014.19 1014.33 1014.47 1014.61 1014.73 1014.84 1014.94 1015.03 1015.10 1015.17 1015.23 1015.30 1015.38 1015.50 1015.65 1015.87 1016.16 1016.52 1016.95 1017.44 1017.97 1018.51 1019.05 1019.56 1020.02 1020.44 1020.80 1021.12 1021.41 1021.67 1021.91 1022.15 1022.38 1022.60 1022.78 1022.93 1023.03 1023.08
1013.04 1013.28 1013.49 1013.68 1013.84 1013.98 1014.10 1014.22 1014.32 1014.43 1014.55 1014.67 1014.80 1014.93 1015.07 1015.20 1015.34 1015.47 1015.61 1015.78 1015.97 1016.20 1016.48 1016.82 1017.21 1017.64 1018.10 1018.57 1019.05 1019.51 1019.94 1020.35 1020.73 1021.10 1021.44 1021.78 1022.10 1022.41 1022.70 1022.96 1023.17 1023.34 1023.46
1012.54 1012.86 1013.13 1013.37 1013.56 1013.72 1013.84 1013.94 1014.04 1014.14 1014.25 1014.39 1014.55 1014.73 1014.92 1015.11 1015.30 1015.49 1015.66 1015.82 1015.99 1016.18 1016.39 1016.64 1016.93 1017.26 1017.63 1018.04 1018.46 1018.90 1019.34 1019.78 1020.21 1020.64 1021.05 1021.46 1021.86 1022.25 1022.61 1022.94 1023.23 1023.47 1023.66
1011.87 1012.24 1012.58 1012.89 1013.14 1013.34 1013.50 1013.62 1013.73 1013.84 1013.97 1014.13 1014.32 1014.54 1014.78 1015.02 1015.26 1015.47 1015.67 1015.84 1015.99 1016.13 1016.28 1016.45 1016.66 1016.90 1017.20 1017.53 1017.91 1018.31 1018.74 1019.18 1019.63 1020.09 1020.54 1021.00 1021.45 1021.89 1022.31 1022.70 1023.06 1023.38 1023.65
1010.99 1011.40 1011.81 1012.18 1012.51 1012.79 1013.02 1013.20 1013.37 1013.53 1013.70 1013.90 1014.13 1014.39 1014.66 1014.95 1015.22 1015.46 1015.67 1015.85 1015.98 1016.10 1016.21 1016.32 1016.46 1016.64 1016.86 1017.14 1017.45 1017.81 1018.21 1018.63 1019.07 1019.52 1019.98 1020.45 1020.92 1021.38 1021.83 1022.26 1022.67 1023.05 1023.38
Thickness
5772 5771 5771 5771 5771 5771 5770 5771 5771 5772 5771 5771 5771 5771 5769 5768 5766 5763 5757 5754 5751 5749 5746 5744 5742 5740 5738 5736 5735 5733 5732 5730 5729 5727 5725 5723 5722 5720 5718 5717 5715 5714 5712
5772 5772 5771 5772 5772 5772 5772 5772 5772 5772 5772 5771 5771 5771 5770 5768 5765 5763 5758 5754 5752 5749 5747 5745 5743 5740 5738 5737 5735 5733 5732 5730 5728 5726 5725 5723 5721 5720 5718 5716 5715 5713 5712
5772 5772 5772 5772 5772 5773 5773 5773 5773 5772 5772 5771 5770 5770 5769 5767 5765 5763 5759 5756 5752 5749 5747 5745 5743 5741 5739 5737 5735 5734 5732 5730 5728 5726 5724 5722 5721 5719 5718 5716 5714 5713 5711
5773 5772 5772 5772 5773 5773 5773 5772 5772 5771 5770 5769 5768 5768 5768 5766 5764 5762 5760 5758 5754 5751 5747 5745 5743 5741 5739 5738 5736 5734 5732 5730 5728 5726 5724 5722 5720 5719 5717 5715 5713 5712 5710
5774 5774 5773 5773 5773 5773 5773 5773 5771 5769 5767 5767 5766 5767 5766 5765 5764 5762 5760 5757 5755 5752 5748 5745 5743 5740 5739 5737 5735 5733 5731 5729 5728 5726 5723 5721 5720 5718 5716 5714 5712 5711 5709
5775 5774 5774 5774 5773 5772 5771 5771 5769 5769 5767 5766 5766 5765 5764 5764 5763 5761 5759 5757 5754 5752 5749 5746 5743 5740 5737 5736 5734 5732 5730 5728 5726 5724 5722 5720 5718 5717 5715 5713 5711 5709 5707
5776 5775 5774 5773 5773 5771 5770 5770 5768 5766 5765 5765 5760 5757 5759 5761 5760 5758 5757 5755 5753 5750 5748 5744 5741 5739 5736 5733 5732 5730 5728 5726 5724 5722 5720 5719 5717 5715 5713 5711 5709 5708 5706
5776 5776 5773 5773 5773 5771 5769 5768 5767 5764 5763 5765 5758 5751 5746 5748 5752 5754 5753 5751 5749 5747 5744 5742 5739 5737 5735 5732 5729 5727 5725 5723 5721 5720 5718 5716 5714 5713 5711 5709 5707 5706 5704
5777 5775 5774 5773 5772 5771 5768 5767 5766 5764 5760 5762 5761 5753 5744 5740 5742 5745 5747 5746 5744 5742 5740 5738 5736 5733 5731 5728 5726 5723 5722 5720 5718 5717 5715 5713 5711 5709 5707 5706 5705 5703 5701
5776 5775 5773 5772 5771 5770 5768 5767 5767 5765 5761 5757 5759 5758 5755 5750 5740 5734 5737 5739 5739 5736 5734 5733 5731 5728 5726 5723 5722 5720 5718 5716 5714 5712 5711 5709 5707 5705 5704 5702 5701 5700 5698
5776 5775 5773 5772 5770 5768 5767 5766 5765 5764 5762 5759 5756 5755 5753 5751 5748 5738 5730 5730 5730 5729 5729 5727 5725 5723 5721 5718 5717 5715 5713 5711 5709 5707 5705 5704 5702 5701 5699 5698 5696 5695 5694
5775 5774 5772 5770 5769 5767 5765 5764 5763 5762 5761 5759 5757 5755 5752 5748 5745 5741 5733 5727 5723 5723 5723 5722 5720 5718 5716 5714 5711 5709 5708 5706 5704 5702 5700 5698 5696 5695 5693 5692 5690 5688 5687
5773 5771 5771 5769 5767 5766 5765 5763 5761 5759 5758 5756 5755 5754 5753 5751 5749 5744 5735 5728 5722 5719 5718 5716 5715 5713 5711 5709 5706 5704 5702 5700 5697 5696 5694 5693 5690 5688 5686 5685 5683 5682 5680
5773 5772 5769 5767 5765 5764 5763 5761 5759 5757 5756 5755 5754 5752 5751 5750 5749 5745 5738 5730 5720 5716 5713 5711 5710 5708 5706 5704 5701 5698 5696 5694 5692 5691 5689 5686 5684 5682 5680 5678 5676 5674 5672
5773 5770 5768 5766 5764 5762 5760 5758 5756 5754 5753 5752 5751 5750 5748 5747 5746 5744 5740 5734 5724 5714 5708 5706 5704 5703 5701 5698 5695 5692 5690 5688 5686 5684 5682 5679 5677 5674 5672 5670 5668 5666 5664
5772 5769 5766 5764 5762 5760 5758 5756 5754 5753 5751 5749 5747 5745 5744 5744 5743 5741 5737 5733 5729 5721 5709 5705 5702 5699 5697 5694 5690 5687 5684 5682 5679 5677 5675 5672 5670 5667 5665 5663 5661 5659 5657
5771 5767 5764 5762 5759 5757 5755 5753 5751 5750 5747 5745 5744 5742 5740 5740 5738 5737 5734 5730 5726 5720 5709 5702 5698 5695 5692 5689 5685 5682 5679 5676 5672 5670 5668 5665 5663 5660 5658 5656 5654 5651 5649
5770 5767 5763 5760 5757 5754 5752 5749 5747 5746 5743 5741 5739 5738 5736 5736 5734 5732 5729 5726 5722 5717 5709 5699 5693 5690 5687 5684 5681 5678 5675 5671 5667 5664 5661 5658 5656 5654 5651 5649 5646 5644 5642
5769 5765 5762 5758 5754 5752 5749 5746 5744 5742 5740 5738 5736 5733 5731 5730 5728 5727 5724 5721 5717 5714 5707 5699 5691 5686 5683 5680 5677 5674 5671 5667 5663 5658 5655 5652 5649 5647 5644 5642 5639 5637 5634
5766 5762 5759 5756 5751 5748 5745 5742 5740 5737 5734 5733 5731 5729 5726 5724 5722 5721 5719 5716 5713 5707 5702 5695 5689 5683 5679 5676 5673 5668 5664 5662 5659 5655 5651 5647 5643 5640 5638 5635 5633 5630 5628
5765 5760 5756 5752 5749 5744 5740 5736 5734 5732 5729 5727 5726 5724 5721 5719 5717 5715 5713 5710 5707 5702 5698 5692 5686 5680 5675 5671 5668 5666 5661 5657 5654 5651 5646 5643 5639 5635 5631 5629 5626 5624 5621
5761 5756 5751 5748 5744 5740 5733 5731 5728 5727 5724 5722 5720 5719 5716 5714 5711 5708 5706 5704 5702 5698 5693 5689 5683 5678 5673 5670 5667 5663 5658 5654 5648 5646 5643 5639 5635 5631 5628 5624 5621 5618 5615
5757 5752 5747 5743 5738 5732 5729 5726 5724 5722 5720 5718 5716 5714 5714 5710 5706 5702 5699 5697 5695 5693 5690 5686 5680 5676 5672 5669 5664 5660 5656 5652 5647 5644 5640 5635 5633 5628 5625 5621 5617 5614 5610
5753 5748 5743 5739 5733 5728 5725 5722 5719 5718 5716 5714 5712 5710 5707 5703 5700 5697 5694 5691 5688 5685 5684 5682 5678 5674 5670 5667 5663 5658 5653 5649 5645 5641 5637 5631 5629 5625 5622 5617 5614 5610 5605
5750 5745 5740 5735 5730 5724 5720 5717 5714 5713 5710 5708 5706 5704 5701 5697 5693 5691 5689 5686 5682 5678 5677 5674 5672 5668 5665 5661 5657 5653 5648 5643 5638 5635 5633 5628 5625 5621 5617 5613 5608 5604 5601
5747 5742 5737 5733 5728 5721 5715 5713 5710 5709 5705 5703 5700 5697 5694 5691 5687 5685 5683 5680 5676 5673 5672 5668 5665 5662 5658 5655 5651 5648 5644 5639 5635 5632 5630 5625 5621 5617 5611 5610 5605 5600 5596